{"data":{"norad_id":65576,"intl_designator":"2025-203M","name":"PRAETORIAN SDA_613","alt_names":[],"object_type":"PAYLOAD","status":"ACTIVE","operator":null,"country":"US","launch_date":"2025-09-10","launch_site_code":"AFWTR","launch_vehicle":null,"mission":null,"orbit_class":"UNKNOWN","rcs_meters":null,"size_class":null,"mass_kg":null,"dimensions":null,"purposes":["military"],"wikipedia_slug":null,"has_3d_model":false,"image_url":null,"decayed_at":null,"tle_current":{"epoch":"2026-09-20T01:39:41.823648Z","epoch_age_seconds":51626,"freshness":"FRESH","line1":"1 65576U 25203M   26263.06923407  .00000054  00000+0  38976-4 0  9996","line2":"2 65576  81.2966 283.2422 0004676 302.4012  57.6691 13.82772758 51797","mean_motion":13.82772758,"eccentricity":0.0004676,"inclination_deg":81.2966,"raan_deg":283.2422,"arg_perigee_deg":302.4012,"mean_anomaly_deg":57.6691,"bstar":3.8976e-5,"rev_number":5179,"period_min":104.13858616095,"perigee_km":950.64001010231,"apogee_km":957.49708873212,"semimajor_km":7332.2055494172,"source":"CELESTRAK","updated_at":"2026-09-20T09:00:47.716890Z"}}}